Wind_Speed
17 16 16 15 13 12 11 9 10 12 12 12 12 12 12 13 14 14 14 13 13 12 10 9 9 8 7 6 6 6 7 7 8 9 11 12 13 14 15 15 16 16 17 17 17 17 17 16 15 15 14 13 13 13 13 12 12 12 12 12 12 12 12 12 12 12 11 11 11 11 11 10 10 11 11 12 11 10 9 9 10 11 13 13 12
18 18 19 19 16 14 13 12 11 12 12 11 11 12 12 13 14 15 15 15 15 15 14 13 12 11 10 8 7 7 6 6 7 8 8 9 11 11 12 13 14 14 14 15 15 15 15 15 15 14 13 12 12 11 11 11 11 11 11 11 11 11 10 10 10 10 10 11 10 10 10 10 10 10 11 12 12 11 10 9 9 10 12 12 11
19 19 20 21 20 18 16 15 14 13 13 11 9 10 12 12 14 15 15 16 16 17 18 17 16 15 14 12 10 9 8 7 7 7 7 7 8 9 10 11 12 12 13 13 14 14 14 14 14 13 13 12 11 11 10 10 10 9 9 9 9 9 9 9 9 9 9 10 10 10 11 11 11 11 11 12 11 10 9 9 9 9 10 10 9
21 20 19 19 20 21 20 18 16 15 14 12 10 10 11 11 12 13 14 15 16 17 19 19 19 19 18 17 15 13 11 10 9 9 8 8 8 8 9 10 11 11 12 13 13 14 15 15 14 14 13 12 11 10 10 9 9 9 8 8 8 8 8 8 8 9 9 9 9 10 10 11 11 11 11 11 10 9 8 8 8 8 9 8 7
25 22 20 20 20 22 23 21 19 16 14 13 13 13 13 12 12 13 13 14 15 16 17 19 20 20 20 19 19 17 16 14 13 12 11 10 10 9 10 10 11 11 12 12 13 14 15 15 16 16 15 15 13 12 11 10 9 8 8 8 7 7 7 7 7 7 8 8 8 9 9 10 10 10 10 10 9 8 7 7 7 7 7 7 7
29 26 23 22 22 22 22 20 20 19 17 17 17 16 15 15 14 13 13 13 14 15 16 17 19 20 20 20 20 20 19 18 17 15 14 13 13 12 11 11 11 12 12 12 12 13 14 15 15 16 16 16 16 14 13 12 11 9 9 8 8 7 7 6 7 7 7 8 8 9 9 10 10 10 10 9 9 8 8 7 7 7 7 7 6
29 29 27 25 23 22 22 20 20 21 22 22 22 19 16 16 16 15 14 13 14 14 15 16 17 18 19 20 20 20 20 20 19 18 17 17 16 15 14 13 13 13 13 12 12 12 13 13 14 14 15 15 15 15 14 13 12 10 9 8 8 7 7 7 7 7 7 8 8 9 10 10 11 11 11 11 11 10 9 8 8 7 7 6 6
31 31 31 29 26 25 25 25 24 25 24 24 24 21 17 16 17 17 17 15 15 15 15 16 16 17 18 19 19 19 19 19 19 20 19 19 18 18 16 15 14 14 14 14 14 13 13 13 13 13 13 13 14 14 13 13 11 10 9 8 7 7 7 6 6 7 7 8 8 9 10 11 12 13 13 14 13 12 12 11 10 10 9 9 9
36 34 34 34 31 28 28 27 27 28 27 24 24 24 22 21 20 20 19 18 17 17 17 17 16 16 17 19 19 19 19 18 18 19 20 20 19 19 18 17 16 15 15 15 15 15 14 14 13 12 12 12 12 13 13 12 11 9 8 7 6 6 6 6 6 6 6 7 7 8 9 11 12 13 14 15 15 15 14 14 14 14 14 15 15
42 38 37 38 35 32 31 28 27 28 28 26 25 26 26 26 24 22 22 22 20 18 18 18 18 17 17 18 19 19 19 18 17 17 18 19 19 19 18 18 17 17 16 16 16 16 16 15 14 13 12 12 12 12 12 12 11 9 7 6 6 5 5 5 5 5 5 6 6 7 8 9 10 12 13 14 15 15 15 15 17 18 19 20 21
45 42 40 41 39 36 33 30 29 28 28 27 28 29 31 30 26 23 25 25 23 22 21 21 21 20 19 19 20 19 19 18 18 16 16 16 17 18 18 18 18 18 17 17 16 17 17 17 16 15 13 12 12 12 12 12 11 10 7 6 5 5 4 4 4 4 4 4 5 6 6 7 9 10 11 12 13 13 14 14 16 17 19 21 23
47 45 42 42 43 42 38 34 32 30 29 29 30 31 32 31 27 23 24 26 27 28 26 24 24 23 22 22 21 21 20 20 19 17 16 15 15 16 17 18 19 19 19 18 17 17 17 18 18 17 16 15 13 12 12 12 12 10 8 7 6 4 4 4 4 3 3 3 3 3 4 6 6 7 8 9 10 12 12 13 14 15 16 18 20
46 47 46 44 43 45 43 38 36 35 32 31 31 31 33 34 30 24 25 26 27 28 28 26 26 26 25 24 24 24 24 23 21 20 18 17 15 14 15 16 17 18 19 19 19 18 18 18 18 18 18 17 15 14 13 13 12 11 9 8 7 5 4 4 4 4 3 2 1 1 2 3 4 5 6 7 8 10 11 11 12 12 13 14 16
40 43 45 45 44 46 46 42 38 37 36 33 31 29 30 32 31 27 27 30 30 29 29 28 28 28 28 27 26 27 28 27 26 24 22 20 19 17 16 15 15 16 18 19 19 19 19 19 19 19 19 18 17 15 14 13 13 12 10 9 8 6 5 5 5 6 5 4 3 2 1 1 1 2 3 4 6 8 9 9 9 9 10 10 11
41 42 42 43 42 43 46 45 40 38 37 36 34 31 29 28 28 27 30 33 34 31 30 30 30 30 31 32 31 30 30 29 28 27 26 24 23 21 20 18 17 17 17 18 19 19 19 19 19 18 19 19 18 16 15 14 14 13 11 11 10 9 7 6 7 8 8 7 6 4 3 2 1 1 0 1 3 4 5 6 7 6 7 7 7
53 50 48 48 47 46 46 46 43 41 38 37 37 36 32 27 25 26 30 35 36 33 30 29 29 29 33 38 37 34 33 31 29 29 29 27 27 25 23 22 21 20 19 18 19 19 20 20 19 19 19 19 18 17 16 16 16 14 13 13 13 12 8 7 9 11 10 9 8 7 6 5 4 3 3 2 2 2 3 3 4 5 5 5 4
64 60 57 54 52 52 50 48 46 44 41 40 41 39 33 27 25 26 29 34 38 36 31 29 29 29 34 42 44 39 36 34 32 31 30 29 29 28 27 26 24 23 21 20 19 20 21 21 21 20 20 19 18 17 17 18 18 17 16 16 16 13 9 9 12 14 13 12 11 10 9 8 7 7 7 6 5 4 3 3 3 4 6 6 6
71 70 68 64 59 55 53 51 50 49 46 44 45 43 37 34 34 35 34 34 37 40 36 31 30 29 32 43 48 44 39 37 35 33 32 31 31 30 30 30 28 26 24 23 22 21 21 22 22 22 21 19 18 18 18 19 20 20 18 19 19 14 9 11 16 17 15 14 14 13 12 11 11 11 11 10 9 8 7 6 6 5 6 6 7
76 75 75 74 69 64 59 56 54 53 52 50 50 51 50 48 48 48 46 41 41 44 42 37 34 32 32 40 47 45 42 40 38 37 35 33 33 33 33 33 32 29 28 26 25 24 23 22 23 23 22 20 19 19 20 21 22 22 20 21 20 14 10 15 19 18 16 16 16 16 16 15 14 14 14 13 13 12 11 11 10 9 8 8 7
81 80 79 78 76 74 70 65 61 59 58 56 55 56 59 60 61 59 57 52 49 49 48 45 41 36 34 38 43 45 45 43 41 40 39 37 37 37 37 37 35 33 31 29 28 26 25 24 23 23 23 22 21 21 22 23 25 24 23 22 20 15 13 17 21 20 19 18 18 18 18 17 17 17 16 16 16 16 16 16 15 14 13 12 11
85 84 84 82 80 79 77 74 71 69 67 65 63 61 62 64 65 64 62 59 55 54 53 52 48 42 37 37 39 43 46 46 44 43 42 42 41 40 39 39 38 36 34 33 31 29 27 26 25 24 24 24 24 24 24 25 26 26 25 23 20 17 16 19 21 21 21 21 20 19 19 18 18 18 18 18 18 18 19 20 20 19 18 17 17
88 87 87 86 84 82 81 80 79 78 77 76 74 70 67 66 66 67 67 65 61 58 56 57 57 53 49 46 46 46 47 48 48 47 46 45 45 44 42 41 39 38 37 36 35 33 31 29 27 26 25 26 26 26 26 26 27 27 26 24 22 21 20 20 21 22 23 24 23 22 21 19 19 19 19 19 18 19 20 22 21 21 21 22 22
90 90 90 89 88 87 86 85 84 84 83 83 81 77 72 69 68 68 69 70 68 64 60 60 62 64 63 60 57 55 53 52 51 50 49 49 48 47 45 43 41 41 40 39 38 36 34 32 30 29 27 27 27 27 27 27 27 27 27 25 24 24 24 23 22 22 24 27 27 25 23 21 21 21 21 20 19 19 20 20 20 20 21 22 24
92 92 91 91 91 90 89 89 88 87 85 84 83 80 77 73 71 70 70 71 70 67 64 63 65 67 69 67 65 62 60 58 55 54 53 52 51 50 48 46 44 43 43 43 41 39 38 36 34 32 30 29 29 29 28 27 27 27 27 27 27 27 26 25 24 23 25 28 30 28 25 23 23 24 24 23 22 21 20 19 18 19 21 22 23
93 93 93 93 93 93 92 91 90 89 87 85 83 81 80 77 75 74 73 73 71 69 67 66 67 68 69 69 68 66 64 62 59 57 56 56 55 54 52 49 47 46 46 46 45 42 40 39 38 36 35 33 32 32 31 30 29 28 28 28 28 29 29 28 27 26 26 28 31 31 28 24 24 26 26 25 24 22 20 20 19 20 21 22 23
94 94 94 94 94 94 94 93 92 90 89 87 85 83 82 81 79 78 78 78 77 74 72 70 70 70 71 71 70 69 67 66 63 61 60 59 59 59 56 53 51 49 47 47 48 46 43 42 42 42 41 40 39 37 36 34 33 31 30 29 29 29 30 30 30 29 29 29 30 32 30 27 25 26 27 27 26 24 22 22 22 22 22 22 24
93 94 94 94 94 94 94 94 93 92 91 90 88 87 85 84 84 83 83 83 83 82 81 79 76 75 74 73 73 72 71 70 68 66 64 63 63 63 61 58 55 53 51 49 49 48 47 45 45 45 45 45 44 43 42 40 38 36 34 32 31 31 31 33 33 33 31 29 30 33 33 30 28 28 28 28 27 26 24 24 25 24 23 23 26
95 95 95 95 94 94 94 94 94 94 93 92 91 89 89 88 88 88 88 88 88 88 88 87 85 83 80 78 77 77 75 74 73 71 68 67 67 66 65 63 60 58 56 54 52 51 50 49 48 48 47 46 46 46 46 46 44 43 41 38 36 34 34 35 35 35 33 31 31 33 34 32 30 29 29 29 29 28 27 27 27 26 24 24 27
99 98 97 96 96 95 95 96 96 95 95 94 93 92 91 91 91 91 92 92 93 92 91 90 89 88 85 83 81 80 79 78 77 76 73 70 69 69 69 68 66 63 61 60 58 56 53 52 51 50 49 48 48 48 49 49 49 48 47 45 44 41 39 37 37 36 35 33 33 34 35 34 32 31 31 31 31 30 30 30 30 29 27 27 28
102 101 100 99 98 98 97 97 98 97 97 96 95 94 94 93 93 93 93 94 94 94 93 91 89 88 87 85 84 83 82 81 80 79 78 75 72 72 72 72 71 69 67 65 64 62 60 57 56 55 53 52 50 50 52 52 52 51 50 49 48 46 44 41 39 38 38 37 36 36 36 36 35 35 34 33 33 33 33 33 33 33 31 30 30
104 104 103 102 102 101 101 100 100 100 99 98 97 97 96 95 94 94 94 94 95 95 94 93 91 89 87 86 85 84 83 82 82 81 81 80 77 75 74 74 75 75 73 71 70 69 68 66 64 62 61 58 55 54 54 54 53 53 52 51 50 49 47 45 43 42 41 41 40 39 39 38 38 38 38 37 36 36 36 36 36 36 35 33 33
107 107 106 105 105 104 104 103 103 102 101 100 99 99 98 97 97 96 96 96 96 96 96 95 94 92 90 88 87 86 84 84 83 83 83 83 83 81 79 77 77 77 77 76 75 74 74 73 72 71 69 66 63 60 58 57 55 54 53 53 51 50 49 49 48 46 46 45 44 43 43 41 40 40 41 41 40 39 39 39 39 39 38 36 35
111 110 109 109 108 108 107 107 106 105 104 103 103 102 101 100 99 99 99 100 99 98 98 96 95 94 93 91 90 89 87 86 86 86 86 87 87 87 85 83 80 79 80 80 80 79 79 78 77 75 74 72 69 66 63 61 59 58 56 55 54 53 52 51 51 51 50 50 49 47 47 45 43 42 43 44 43 42 42 42 41 41 40 39 37
114 114 113 112 112 111 111 110 110 109 108 107 106 105 105 104 103 102 102 102 102 101 100 99 97 96 95 94 93 93 92 90 89 89 90 90 91 91 90 89 86 84 83 83 83 84 83 83 81 79 77 75 73 71 68 66 64 62 61 60 58 57 56 55 54 54 54 54 53 51 50 49 48 46 46 46 46 46 45 45 44 43 42 41 40
118 118 117 116 115 115 114 114 113 112 112 111 110 109 108 107 106 106 105 105 104 104 103 102 101 99 98 97 96 95 95 94 93 92 93 93 94 94 94 93 92 90 88 87 86 86 87 86 85 83 80 78 76 75 73 71 69 67 66 65 63 62 60 58 57 57 57 58 57 55 53 52 51 50 49 49 49 49 48 47 46 45 44 44 43
121 121 121 120 119 118 118 117 116 116 115 114 113 112 111 110 110 109 108 108 107 107 106 105 104 103 101 100 99 98 98 97 97 96 95 96 96 97 97 97 96 95 94 92 91 90 90 89 89 88 86 83 81 79 78 77 75 73 71 70 68 66 65 63 61 60 59 59 59 58 56 55 54 53 53 52 52 51 50 49 48 47 46 46 45
122 122 122 122 122 122 121 121 120 119 119 118 117 116 115 114 113 112 111 111 110 110 110 108 107 106 105 104 103 102 101 100 100 99 99 99 99 99 100 100 100 99 98 97 96 94 93 92 92 91 90 89 86 84 83 82 81 79 77 75 73 71 69 67 66 64 63 61 61 60 59 58 57 56 55 56 55 54 53 52 51 50 48 48 48
123 123 123 123 124 124 124 124 123 123 122 122 121 120 119 118 117 116 115 115 114 114 113 112 111 109 108 107 106 105 105 104 103 102 102 102 102 102 102 102 103 103 102 101 100 99 97 96 95 95 94 93 92 91 89 87 86 84 82 80 78 76 74 72 70 68 67 65 64 62 61 61 61 60 58 58 58 58 58 57 56 54 52 51 51
124 124 124 124 124 124 125 125 126 126 126 125 125 124 123 121 120 120 119 118 118 118 117 116 114 113 112 110 110 109 108 108 107 106 106 105 105 104 104 104 105 105 105 105 104 103 102 101 100 99 98 97 97 96 94 93 91 90 88 86 84 82 80 77 75 73 71 70 69 68 66 64 64 64 63 62 61 61 62 62 62 60 57 56 55
126 126 126 126 125 125 125 126 126 127 127 128 127 127 126 125 124 124 123 122 122 122 121 120 118 117 116 114 113 112 111 111 110 110 109 109 108 108 107 107 107 107 107 107 107 106 105 105 104 103 102 101 101 100 99 98 96 95 93 91 89 87 85 83 81 78 76 75 74 74 73 71 70 69 69 68 66 65 65 66 66 65 63 62 62
127 127 127 127 127 127 127 127 127 127 128 128 129 129 129 129 128 127 127 126 126 125 125 124 123 122 120 119 118 117 115 114 114 113 113 112 112 111 111 111 110 110 110 109 108 108 108 107 107 107 106 106 105 104 103 102 101 100 99 97 95 93 91 89 86 84 82 81 80 79 78 77 77 76 75 74 73 71 69 69 69 69 69 68 68
127 127 128 128 129 129 128 128 128 128 128 129 129 130 131 131 131 131 130 130 129 129 128 128 127 126 125 124 123 122 120 119 118 117 116 116 115 115 115 114 114 113 113 112 111 110 109 109 109 110 110 109 109 108 108 107 106 105 104 102 100 98 96 94 92 90 88 86 86 85 83 83 82 82 81 80 79 78 76 75 74 73 73 73 73
125 126 127 128 128 129 129 130 130 130 130 130 130 130 131 132 132 133 133 133 133 132 132 132 131 131 129 128 127 126 125 124 123 122 121 120 119 118 118 117 117 117 116 115 114 113 112 112 111 111 112 112 112 112 112 111 111 110 108 107 105 104 102 100 99 96 94 92 90 89 89 88 88 88 87 86 85 83 82 82 81 80 78 77 76
123 125 126 127 127 128 129 129 130 131 131 132 132 132 132 132 133 133 133 134 134 135 135 135 135 135 134 133 132 131 130 129 128 127 126 125 124 123 122 121 121 120 119 119 118 117 116 115 114 114 114 114 114 114 114 114 115 114 113 112 111 109 108 107 105 104 102 99 97 95 94 93 93 93 93 92 91 89 88 87 86 85 85 83 82
122 123 124 125 126 127 128 129 129 130 131 132 132 133 133 134 134 134 134 134 134 135 136 136 137 138 137 137 136 135 134 133 132 131 130 129 129 128 127 126 125 124 123 122 121 120 119 118 117 117 117 116 116 116 116 116 116 116 116 115 115 114 114 113 112 111 109 107 105 104 102 100 99 98 98 97 96 95 94 92 91 89 88 88 87
120 121 122 123 125 126 127 128 129 130 130 131 132 133 133 134 135 136 136 136 136 136 136 136 137 138 139 139 139 139 138 136 135 135 134 133 132 132 131 130 129 129 128 127 125 124 122 121 120 119 119 119 119 119 119 118 118 118 117 117 117 116 116 116 116 116 116 114 113 112 110 109 108 106 105 103 102 100 99 98 96 94 93 92 91
118 119 120 122 123 124 125 126 127 128 130 130 131 132 133 134 134 135 136 137 137 137 137 138 138 138 138 139 140 140 140 139 138 137 137 136 135 134 134 133 133 132 131 131 129 128 126 125 123 122 121 121 121 121 121 121 121 121 120 119 119 118 118 117 117 117 118 118 117 117 116 115 114 113 112 110 108 106 105 103 102 100 99 97 96
116 117 118 120 121 122 123 125 126 127 128 129 130 131 132 133 134 134 135 136 137 137 138 138 139 139 139 139 139 139 139 139 139 139 138 138 137 136 136 135 135 135 134 134 133 132 130 129 127 126 125 124 123 123 123 123 123 123 123 123 122 121 120 120 119 119 118 118 118 118 118 117 116 116 115 114 113 112 111 109 108 107 105 103 101
114 115 116 118 119 121 122 123 124 125 126 127 128 129 130 131 132 133 134 135 135 136 137 137 138 138 139 139 140 140 140 139 139 138 138 138 137 136 136 135 136 136 136 136 135 135 134 133 131 130 129 128 127 126 125 125 125 125 125 125 125 125 124 123 122 122 121 120 119 118 118 117 117 116 116 116 116 115 114 113 113 112 111 108 106
110 112 114 115 117 118 120 121 122 123 124 125 125 126 127 128 129 130 131 132 134 134 135 136 136 137 137 138 138 139 139 139 139 138 138 137 136 136 135 135 135 135 136 136 136 136 136 135 134 133 133 132 131 130 129 128 127 126 126 126 126 126 127 126 126 125 124 123 122 121 120 119 118 117 117 117 117 117 116 116 116 115 115 114 112
105 107 109 111 113 115 116 118 119 120 121 122 123 124 125 126 127 128 129 130 131 132 132 133 133 133 134 135 135 136 136 137 137 137 136 136 135 135 135 135 135 135 135 135 135 135 136 136 136 135 135 134 134 134 133 132 131 130 129 128 127 127 127 128 128 128 127 126 125 124 123 122 121 120 119 119 118 118 118 118 118 118 117 117 116
Wind_Direction
274 275 276 276 275 271 261 248 247 258 269 280 288 292 298 304 310 317 322 327 330 331 333 338 340 341 343 348 0 14 21 23 24 25 27 27 28 28 30 33 34 36 36 35 35 36 37 39 40 40 40 41 43 44 45 46 45 44 43 40 39 37 35 33 30 26 21 17 13 8 4 359 355 352 348 348 348 344 344 344 345 351 352 354 6
275 274 273 271 270 267 262 250 239 240 249 259 271 277 281 289 296 304 312 318 323 326 327 328 328 329 329 329 335 345 356 3 8 12 14 16 20 20 20 23 25 26 28 28 28 29 29 30 31 32 32 34 36 38 39 40 41 40 38 36 33 31 31 29 26 24 18 12 5 356 350 343 340 338 334 334 336 334 335 338 342 347 346 351 7
269 269 270 272 274 274 269 257 242 237 240 246 262 273 273 277 284 291 299 307 314 318 321 323 324 326 327 325 324 325 331 338 343 351 356 360 5 9 10 11 13 15 16 17 17 19 20 21 21 22 23 25 27 30 32 34 35 36 35 32 29 26 24 23 21 19 15 9 1 352 345 339 333 329 327 329 331 330 330 332 339 346 345 352 9
262 263 265 268 274 277 277 271 254 240 239 247 268 280 277 274 276 281 287 294 301 307 311 315 317 321 324 325 324 322 320 323 326 330 335 339 345 352 356 359 0 2 5 6 6 7 9 10 11 11 12 15 18 20 22 24 27 31 31 28 26 24 21 19 16 12 8 4 358 350 344 340 336 333 334 336 337 335 334 335 344 350 350 359 13
257 257 258 260 265 269 273 274 265 250 242 248 264 276 281 279 275 275 278 282 288 294 299 303 308 313 318 321 322 321 319 319 320 320 321 322 326 333 341 347 349 351 354 356 358 358 360 2 3 4 4 5 7 9 12 14 18 23 24 21 20 19 18 16 11 7 4 2 358 353 349 348 347 345 345 348 350 351 350 351 357 360 1 11 18
255 252 250 251 254 259 263 267 268 265 262 260 262 267 278 283 278 274 275 278 282 287 291 296 300 304 309 313 315 316 317 318 317 316 315 314 315 319 326 333 338 341 344 347 350 351 353 355 357 359 359 359 0 1 3 5 9 14 15 14 13 12 11 9 7 6 5 4 2 0 1 4 5 5 5 8 12 15 15 15 15 17 18 24 27
249 249 245 242 245 252 257 259 261 265 267 266 264 264 271 282 283 279 277 280 283 286 290 294 297 299 301 304 307 309 310 313 314 313 312 311 311 311 315 321 327 332 335 338 340 342 345 347 350 353 354 354 354 355 356 358 2 7 9 9 8 8 7 5 5 5 5 5 6 8 12 18 24 28 30 33 36 38 39 39 39 40 41 44 48
239 243 242 239 241 247 251 255 259 262 264 265 266 267 270 280 284 280 278 280 283 285 288 291 295 299 299 300 302 303 304 305 306 307 306 307 308 307 308 311 316 321 326 328 331 333 335 338 341 343 346 348 349 349 349 350 354 358 2 4 4 4 4 4 4 5 4 5 7 12 19 26 35 42 46 49 52 54 56 58 62 65 67 69 71
234 237 239 240 241 242 244 251 259 262 261 259 260 265 269 272 275 273 270 271 273 277 282 285 289 294 298 299 300 301 302 302 301 300 300 300 301 303 302 303 305 309 314 317 320 323 324 327 329 332 335 337 339 340 340 340 342 346 351 355 358 0 0 1 3 3 5 8 11 16 22 29 37 47 54 59 61 64 68 72 77 80 82 84 85
233 234 237 240 242 242 242 246 252 256 256 252 250 254 256 258 263 269 270 269 268 269 273 278 282 285 290 294 296 297 299 300 300 300 298 295 295 297 298 297 295 296 299 303 306 310 312 314 316 319 322 324 327 329 329 328 329 332 338 344 347 352 354 355 357 359 4 11 17 22 28 34 39 46 56 64 68 71 75 80 85 88 91 93 94
237 238 237 238 241 243 241 240 243 249 253 249 246 249 252 253 257 268 271 269 269 273 277 277 277 277 281 285 289 292 292 293 296 298 298 297 294 294 295 295 293 289 287 288 292 297 301 305 307 309 311 312 315 317 317 317 318 321 327 333 334 337 340 341 341 347 357 8 18 26 34 40 45 51 59 68 74 78 81 86 91 94 96 99 101
241 242 240 238 239 240 241 240 241 245 249 248 248 254 256 252 251 259 264 264 268 276 281 283 280 277 278 279 283 287 288 288 289 290 291 294 296 295 294 294 294 292 287 284 284 287 292 296 299 301 303 304 305 306 307 308 309 311 316 320 319 317 316 315 313 315 327 349 4 23 39 47 53 61 71 80 86 91 94 96 98 101 102 104 106
241 241 239 238 238 238 239 241 240 241 244 245 250 256 255 248 245 251 256 256 259 267 276 285 286 281 278 278 279 281 283 284 285 285 284 286 291 294 293 293 292 292 289 284 281 280 282 284 288 291 293 294 294 295 296 298 298 300 303 304 300 292 282 278 278 276 275 281 304 346 34 55 61 71 85 97 104 108 110 110 110 110 110 111 112
234 235 235 237 239 239 238 238 238 239 239 238 242 251 254 249 245 247 252 253 254 258 267 278 285 281 276 276 277 277 279 281 281 282 282 282 284 286 288 291 292 289 287 283 279 276 275 275 277 280 282 284 284 284 285 286 287 287 287 287 281 270 257 252 255 256 253 246 240 249 272 46 61 79 99 110 119 124 126 125 123 122 120 120 121
229 232 233 235 237 237 236 236 237 238 237 234 235 242 250 251 247 247 252 254 254 258 264 270 276 277 274 275 276 274 274 276 276 277 278 278 280 283 285 288 290 289 284 279 276 273 272 271 271 272 275 275 275 276 277 278 277 275 273 271 265 256 247 247 250 249 246 241 233 228 233 238 252 260 129 120 130 139 143 147 147 144 140 137 135
233 236 238 237 236 237 237 235 235 235 235 232 232 237 244 248 249 251 255 254 251 254 260 262 264 268 270 271 272 270 268 269 270 271 273 274 277 281 283 284 286 288 287 282 277 274 270 269 267 267 267 268 269 272 273 274 273 270 266 263 256 247 241 248 254 250 246 245 238 229 226 230 237 245 243 236 204 174 168 174 180 183 186 186 181
233 236 239 238 235 236 236 234 233 233 232 229 231 235 239 238 237 241 247 249 247 247 249 250 251 256 263 266 267 265 264 265 265 266 268 271 274 277 279 278 276 278 281 281 278 274 270 267 265 263 261 261 262 266 270 272 272 268 265 261 254 245 240 251 254 248 245 247 245 238 232 228 231 237 240 240 238 230 219 210 209 211 213 217 223
232 234 237 237 235 235 235 234 232 231 230 228 228 230 230 226 224 229 238 245 245 242 239 241 244 247 255 263 263 259 258 260 262 264 265 267 269 272 274 273 271 269 272 275 276 274 271 267 264 261 258 257 258 260 264 267 268 265 263 260 254 244 235 245 250 248 246 246 246 245 243 237 234 235 238 240 241 240 238 234 230 227 224 224 231
231 233 235 237 238 238 237 236 234 231 230 228 228 229 231 231 233 237 242 244 242 239 236 237 241 242 250 261 261 254 251 254 257 260 262 263 265 267 270 270 269 268 268 270 271 274 276 275 272 268 264 261 258 257 258 261 262 261 259 259 257 248 236 242 248 249 249 249 248 248 249 247 244 241 240 242 243 244 243 242 242 241 238 233 233
232 233 235 237 239 239 239 239 237 234 232 231 231 233 235 237 240 243 245 243 240 237 235 234 237 242 250 259 259 254 251 251 252 255 258 260 261 263 266 267 267 267 267 267 267 269 272 274 275 274 271 267 260 256 254 256 259 260 258 258 259 253 245 249 254 255 253 252 252 251 250 251 251 249 246 245 246 248 247 246 247 248 248 247 244
233 234 235 237 238 238 238 239 239 238 237 236 237 238 238 239 241 242 244 243 240 238 236 232 232 237 242 248 252 253 254 254 253 254 256 258 259 261 263 265 265 266 265 265 266 267 267 267 268 268 267 265 261 256 253 253 256 259 260 260 261 257 249 249 256 259 259 257 255 254 253 253 252 252 251 248 248 250 251 251 250 251 253 254 255
234 234 235 236 237 237 237 238 239 240 241 242 243 244 242 241 241 242 242 242 241 239 237 234 232 233 237 242 247 252 255 256 256 256 256 258 259 259 260 262 264 264 263 262 264 265 264 264 264 263 262 261 260 259 257 256 256 259 261 263 264 262 256 250 252 256 259 260 259 257 256 255 253 253 252 250 249 249 251 253 254 255 255 256 259
235 235 235 236 236 237 237 237 239 241 243 244 245 245 244 241 241 242 242 242 241 240 238 236 234 235 239 245 249 252 254 256 257 257 257 258 258 259 259 260 262 263 262 262 262 264 264 264 264 262 261 261 260 259 259 259 260 262 265 266 265 264 260 256 252 251 254 258 260 259 258 257 256 255 255 253 252 250 250 253 255 257 257 257 259
235 235 235 235 236 237 237 238 239 240 242 244 245 245 244 241 240 240 240 240 239 239 239 239 239 240 242 247 250 253 254 255 256 257 257 258 258 258 258 259 260 261 260 259 259 261 263 264 264 262 261 262 262 261 259 259 260 262 264 266 265 263 261 258 254 250 249 253 258 260 259 256 255 256 257 257 256 255 254 254 254 254 257 258 259
235 235 235 236 236 237 238 239 239 240 241 242 243 244 243 242 239 239 239 238 239 240 242 243 244 244 245 247 250 253 253 254 255 256 257 258 259 259 258 258 259 260 259 257 256 256 259 262 263 263 263 264 264 264 262 261 259 258 258 261 263 264 264 261 258 254 251 251 255 259 259 254 252 254 257 259 259 259 259 258 255 252 254 257 258
236 236 236 236 236 237 238 238 239 239 240 240 241 242 242 241 240 239 239 239 240 242 243 244 245 246 247 248 250 251 252 252 253 254 255 256 258 259 259 259 258 259 259 257 255 254 254 256 259 261 263 266 267 266 264 263 261 258 257 258 260 263 264 264 261 258 255 252 253 257 258 254 250 250 253 256 259 260 260 260 258 254 252 256 257
237 237 237 237 237 237 238 238 238 239 239 240 240 240 240 240 239 239 239 240 241 243 244 245 245 246 247 248 249 250 251 251 251 253 254 255 256 257 257 258 257 258 258 257 255 254 254 254 255 258 261 265 266 266 265 263 262 261 260 259 259 261 262 262 261 259 256 253 252 253 255 254 250 249 250 252 255 257 258 259 259 257 255 256 258
237 238 238 238 238 238 238 239 239 239 239 239 240 240 240 239 239 239 240 241 242 244 246 247 248 248 248 248 249 250 250 250 251 252 253 253 254 254 255 255 255 255 255 255 255 255 255 255 255 256 259 261 263 264 264 263 263 263 262 261 261 261 261 261 260 258 256 253 250 250 252 253 251 249 249 249 251 253 255 256 257 258 257 256 258
237 238 238 239 239 239 239 239 240 240 240 240 240 240 240 240 240 240 240 242 243 245 247 248 250 250 250 249 248 249 249 250 250 251 251 252 251 251 252 253 253 253 253 253 254 255 256 257 257 257 258 259 260 261 262 263 264 264 264 263 263 262 262 261 260 259 258 255 250 247 248 251 252 251 250 249 249 250 253 255 256 258 257 257 259
236 237 238 239 239 239 239 240 240 240 241 241 240 240 240 240 241 241 241 242 244 245 247 248 249 250 250 250 249 249 249 249 249 250 250 250 250 249 249 250 251 251 251 251 252 253 255 257 259 260 260 260 260 260 260 261 263 264 265 265 264 263 262 261 260 260 260 258 254 249 246 248 251 252 252 251 250 250 251 253 255 257 258 257 258
236 236 237 238 239 239 240 240 240 240 240 241 241 241 241 241 241 241 242 243 244 245 246 247 248 249 249 249 249 249 249 249 249 249 250 249 249 248 248 249 250 250 251 251 251 252 253 255 258 260 262 262 261 259 259 260 261 263 264 265 264 262 261 261 260 259 260 259 258 255 251 248 248 250 252 252 252 251 250 251 252 254 255 256 257
237 237 237 237 238 239 239 240 240 240 240 240 241 242 242 242 242 242 242 242 243 244 246 246 247 247 248 248 248 248 248 248 249 249 249 249 249 249 248 248 249 249 250 251 251 252 253 254 255 257 259 260 260 259 259 258 259 260 261 263 263 262 261 260 260 260 260 259 258 257 256 252 249 247 248 249 250 250 250 250 250 251 253 253 253
238 238 237 237 237 238 239 239 240 240 240 241 241 242 242 243 243 243 243 243 243 243 244 245 246 247 247 247 247 247 247 247 247 248 248 248 249 249 249 249 248 249 250 251 251 252 253 254 255 256 256 257 257 257 257 257 257 257 258 259 261 261 261 261 260 259 259 259 258 257 257 256 253 249 247 247 248 249 249 250 249 250 251 251 251
238 238 238 238 238 238 239 239 240 240 241 241 242 242 243 243 243 243 243 244 244 244 243 244 245 246 247 247 248 247 247 246 245 246 247 247 248 248 249 249 249 249 249 249 251 252 253 254 254 255 255 256 255 255 255 255 255 255 255 255 256 258 259 261 261 260 259 258 258 257 257 256 256 254 251 249 249 249 249 250 249 249 249 249 250
239 239 239 239 239 239 239 240 240 240 241 241 242 243 243 243 243 243 243 244 244 245 245 244 244 245 245 246 247 248 247 247 246 245 245 246 247 248 248 249 249 249 249 249 250 250 252 253 254 254 255 255 255 255 255 255 254 254 253 253 254 255 256 258 259 260 259 257 256 256 255 256 256 255 254 252 251 250 249 249 249 248 247 247 247
240 240 240 240 240 240 240 240 241 241 241 241 242 242 243 243 244 244 244 244 244 245 245 245 245 245 245 245 246 246 247 248 247 246 246 245 246 247 248 248 249 249 249 249 250 250 251 252 253 254 255 255 254 254 255 255 255 255 253 253 252 252 253 254 255 257 258 257 256 255 255 255 255 254 255 254 253 251 249 249 249 248 247 246 245
241 241 241 241 241 241 241 241 241 242 242 242 242 243 243 243 244 244 245 245 245 245 245 245 245 245 245 245 245 246 246 247 247 247 247 247 246 246 247 248 248 249 249 249 250 250 250 251 252 253 254 254 254 254 254 255 255 255 255 254 252 252 252 252 252 253 254 254 254 254 255 255 255 254 254 254 254 253 251 249 249 249 248 246 245
242 243 243 242 242 242 242 242 242 242 243 243 243 243 243 244 244 244 244 245 245 246 246 246 246 246 246 246 246 246 246 246 246 247 247 247 247 247 247 247 248 248 249 249 249 250 250 251 251 252 252 253 254 254 254 254 254 255 255 254 253 252 252 251 251 251 251 251 252 253 254 255 256 255 254 254 254 253 253 251 251 251 250 249 246
243 243 243 243 243 243 243 243 243 243 243 244 244 244 244 244 244 244 245 245 245 246 246 247 247 247 246 246 246 246 246 246 246 246 246 247 247 248 248 248 248 248 248 249 249 250 250 250 250 251 251 252 253 253 253 253 253 254 254 254 254 253 252 252 251 251 250 249 250 251 252 253 255 256 256 255 254 253 253 253 252 252 253 252 251
243 243 244 244 244 244 244 244 244 244 244 244 245 245 245 245 245 245 245 245 246 246 246 247 247 247 247 247 247 246 246 246 247 247 247 247 247 247 248 248 248 248 248 248 249 249 249 250 250 250 251 251 252 253 253 253 253 253 253 253 253 253 253 252 252 251 250 250 250 251 251 251 253 255 257 257 256 255 254 254 254 254 254 255 254
243 244 244 244 245 245 245 245 245 245 245 245 246 246 246 246 246 246 246 246 246 247 247 247 247 247 248 248 248 248 248 247 247 247 247 247 247 247 247 248 248 248 249 249 249 249 249 249 250 250 250 251 251 252 252 253 253 253 253 253 253 253 252 252 251 251 251 251 250 250 250 251 252 253 255 257 257 257 256 255 255 254 254 255 256
244 244 244 245 245 245 246 246 246 246 246 246 246 246 247 247 247 247 247 247 247 247 248 248 248 248 248 248 248 248 248 248 248 248 248 248 248 248 248 248 248 248 248 248 248 249 249 249 250 250 250 250 250 251 251 252 253 253 253 253 253 253 252 252 251 251 250 250 250 250 250 251 252 253 255 256 256 257 258 258 257 256 255 255 255
245 245 245 246 246 246 246 246 246 247 247 247 247 247 247 247 247 247 247 247 248 248 248 249 249 249 249 249 248 248 249 249 249 249 249 249 249 249 249 249 249 249 248 248 248 248 248 249 249 250 250 250 250 250 250 251 251 252 252 252 252 253 252 252 252 251 251 250 250 250 250 250 251 253 254 255 256 256 257 258 258 258 257 256 255
245 246 246 246 247 247 247 247 247 247 247 247 248 248 248 248 248 248 248 248 248 248 249 249 249 250 250 250 249 249 249 249 249 249 249 250 250 250 250 250 250 250 249 249 249 248 247 247 248 249 249 250 250 251 251 250 251 251 251 251 252 252 252 252 252 252 252 251 251 251 251 250 251 251 252 254 255 256 256 257 257 258 259 258 257
246 246 246 246 247 247 248 248 248 248 248 248 248 248 248 249 249 249 249 249 249 249 249 249 249 250 250 250 250 250 250 250 250 250 250 250 250 250 251 251 251 251 250 250 250 249 249 248 248 248 248 249 249 250 250 251 251 251 251 251 251 251 251 252 252 252 252 253 253 253 253 253 252 252 252 252 253 254 256 256 256 257 257 258 258
246 246 247 247 247 247 248 248 248 249 249 249 249 249 249 249 249 249 250 250 250 250 250 250 250 250 250 251 251 251 251 251 251 251 251 251 251 251 251 251 252 252 252 251 251 251 250 249 249 248 248 248 249 249 250 250 251 251 251 251 251 251 251 251 251 252 252 253 253 254 254 255 255 254 254 253 253 253 253 255 256 256 256 257 257
246 247 247 248 248 248 248 248 248 249 249 250 250 250 250 250 250 250 250 250 250 250 250 251 251 251 251 251 251 251 252 252 252 252 252 252 252 252 252 252 252 252 252 252 252 252 252 251 251 250 249 248 248 249 249 250 250 250 251 251 251 251 251 251 251 251 251 252 252 253 254 255 255 256 255 255 254 253 253 253 254 255 255 256 256
247 247 248 248 248 249 249 249 249 249 249 250 250 250 251 251 251 251 251 251 251 251 251 251 251 251 251 252 252 252 252 252 252 252 252 252 252 252 252 252 252 253 253 253 253 253 253 253 252 252 251 250 249 249 249 249 249 250 250 251 251 251 251 251 251 251 251 251 252 252 253 254 254 255 255 255 255 254 254 253 253 253 254 255 255
248 248 248 249 249 249 249 250 250 250 251 251 251 251 251 251 251 252 252 252 252 252 252 252 252 252 252 252 252 252 253 253 253 253 253 253 253 253 253 253 253 253 253 253 253 253 253 253 253 253 252 252 251 251 250 249 249 249 250 250 251 251 251 252 252 252 252 252 252 252 252 252 253 253 254 254 255 255 254 254 254 254 254 254 254
248 249 249 249 250 250 250 251 251 251 251 252 252 252 253 253 253 253 253 253 253 253 253 253 253 253 253 253 253 253 253 253 253 253 253 253 254 254 254 254 253 253 253 253 253 253 253 253 253 253 252 252 252 252 251 251 250 249 249 249 250 250 251 251 252 252 252 252 252 252 252 252 252 253 253 253 254 254 254 254 254 254 254 254 254
249 249 250 250 250 251 251 251 252 252 252 253 253 253 253 253 254 254 254 254 254 254 254 254 254 254 253 253 253 254 254 254 254 254 254 254 255 255 254 254 254 254 254 254 254 254 254 253 253 253 252 252 252 251 251 251 250 250 249 249 249 249 249 250 251 251 252 252 252 252 252 252 252 252 252 253 253 253 253 254 254 254 254 254 254
Height
11008 11009 11010 11011 11011 11011 11012 11012 11012 11013 11013 11014 11014 11014 11014 11014 11014 11014 11014 11014 11013 11013 11013 11013 11012 11012 11011 11011 11010 11010 11010 11010 11010 11011 11011 11011 11011 11011 11011 11010 11010 11009 11009 11008 11007 11006 11006 11005 11004 11003 11002 11002 11001 11000 11000 10999 10998 10998 10997 10996 10995 10994 10993 10992 10991 10990 10989 10988 10987 10986 10985 10984 10982 10981 10980 10979 10978 10976 10975 10974 10972 10971 10970 10969 10968
11007 11007 11008 11009 11010 11010 11010 11010 11011 11011 11011 11012 11012 11013 11013 11013 11013 11013 11013 11013 11013 11013 11013 11013 11013 11012 11012 11012 11011 11010 11010 11010 11010 11010 11010 11011 11011 11011 11011 11011 11010 11010 11009 11009 11008 11008 11007 11006 11005 11004 11003 11002 11001 11001 11000 10999 10998 10998 10997 10996 10995 10994 10994 10993 10992 10990 10989 10988 10987 10986 10985 10983 10982 10981 10980 10979 10977 10976 10975 10974 10973 10971 10970 10970 10969
11005 11006 11007 11008 11008 11009 11009 11009 11009 11009 11009 11010 11010 11011 11011 11011 11012 11012 11012 11012 11012 11013 11013 11013 11013 11013 11013 11013 11012 11011 11011 11010 11010 11010 11010 11010 11010 11011 11011 11011 11011 11010 11010 11010 11009 11009 11008 11007 11006 11005 11004 11003 11002 11001 11000 10999 10998 10998 10997 10996 10996 10995 10994 10993 10992 10991 10989 10988 10987 10985 10984 10983 10981 10980 10979 10978 10977 10976 10975 10974 10973 10972 10971 10970 10969
11002 11004 11005 11006 11007 11007 11007 11007 11007 11007 11008 11008 11008 11008 11009 11009 11010 11010 11010 11011 11011 11012 11012 11012 11012 11013 11013 11013 11013 11013 11012 11011 11011 11010 11010 11010 11010 11010 11011 11011 11011 11011 11010 11010 11010 11009 11009 11008 11007 11007 11006 11005 11003 11002 11001 11000 10999 10998 10998 10997 10996 10995 10994 10993 10992 10990 10989 10988 10987 10985 10984 10983 10981 10980 10979 10978 10977 10976 10975 10974 10973 10972 10971 10971 10970
10998 11000 11002 11003 11004 11005 11006 11006 11005 11005 11005 11006 11006 11007 11007 11007 11007 11008 11008 11008 11009 11010 11010 11011 11011 11012 11012 11013 11013 11013 11013 11012 11012 11011 11011 11010 11010 11010 11011 11011 11011 11011 11011 11010 11010 11010 11009 11009 11008 11007 11006 11006 11005 11004 11003 11002 11001 11000 10999 10998 10997 10996 10994 10993 10992 10991 10989 10988 10987 10986 10984 10983 10981 10980 10979 10978 10977 10976 10975 10974 10973 10972 10971 10971 10971
10995 10997 10999 11000 11001 11002 11003 11004 11003 11003 11003 11003 11004 11004 11005 11005 11005 11006 11006 11006 11007 11008 11009 11009 11010 11010 11011 11011 11012 11012 11012 11012 11012 11012 11011 11011 11010 11010 11011 11011 11011 11011 11011 11010 11010 11010 11009 11009 11008 11007 11007 11006 11005 11004 11004 11003 11002 11001 11000 10999 10998 10997 10996 10994 10993 10992 10990 10989 10988 10986 10985 10984 10982 10981 10980 10979 10978 10977 10975 10974 10973 10972 10972 10971 10971
10991 10993 10995 10996 10997 10999 11000 11000 11001 11001 11001 11001 11001 11002 11003 11004 11004 11004 11004 11004 11005 11005 11006 11007 11008 11009 11009 11010 11010 11011 11011 11011 11011 11011 11010 11010 11010 11010 11010 11010 11010 11011 11011 11010 11010 11010 11009 11009 11008 11007 11006 11005 11005 11004 11003 11003 11002 11002 11001 11000 10999 10998 10997 10996 10995 10993 10992 10990 10989 10988 10986 10985 10984 10983 10982 10980 10979 10978 10977 10975 10974 10973 10972 10972 10971
10986 10989 10991 10993 10994 10995 10996 10997 10997 10998 10999 10999 10999 10999 11000 11002 11002 11003 11002 11003 11003 11004 11005 11006 11006 11007 11007 11008 11009 11009 11010 11010 11010 11010 11010 11009 11009 11009 11009 11009 11009 11010 11010 11010 11010 11010 11009 11008 11008 11007 11006 11005 11004 11003 11003 11002 11002 11001 11001 11000 10999 10999 10998 10997 10996 10995 10993 10992 10991 10990 10988 10987 10986 10985 10984 10983 10982 10980 10979 10978 10976 10975 10974 10973 10972
10982 10985 10987 10988 10990 10991 10992 10993 10994 10995 10996 10996 10997 10998 10998 10999 10999 11000 11000 11001 11002 11003 11004 11004 11005 11005 11005 11006 11006 11007 11008 11009 11009 11009 11009 11008 11008 11008 11008 11008 11008 11008 11008 11008 11009 11009 11008 11008 11007 11007 11006 11005 11004 11003 11002 11001 11001 11000 11000 10999 10999 10999 10998 10997 10996 10996 10995 10994 10993 10992 10991 10989 10989 10988 10987 10986 10985 10984 10983 10981 10980 10979 10977 10976 10975
10978 10981 10982 10983 10985 10987 10988 10989 10991 10992 10992 10993 10994 10994 10994 10995 10995 10996 10997 10998 11000 11001 11002 11003 11003 11004 11004 11004 11004 11005 11006 11007 11007 11007 11007 11007 11007 11007 11007 11007 11007 11007 11007 11007 11007 11007 11007 11007 11006 11006 11005 11005 11004 11003 11002 11001 11000 11000 11000 10999 10999 10999 10998 10998 10997 10997 10996 10995 10994 10993 10992 10991 10990 10990 10989 10988 10988 10987 10986 10985 10984 10983 10982 10981 10979
10974 10976 10978 10979 10981 10982 10983 10984 10986 10988 10989 10989 10989 10989 10990 10991 10993 10994 10995 10996 10997 10999 11000 11001 11002 11002 11002 11002 11002 11003 11004 11005 11005 11006 11006 11006 11006 11006 11006 11006 11006 11006 11005 11005 11005 11005 11005 11005 11005 11005 11005 11004 11003 11002 11001 11000 11000 10999 10999 10999 10999 10999 10999 10998 10998 10998 10997 10997 10996 10995 10994 10993 10992 10991 10990 10990 10990 10989 10988 10988 10987 10987 10986 10985 10984
10968 10970 10973 10975 10976 10977 10978 10980 10982 10984 10985 10985 10984 10986 10988 10989 10989 10990 10992 10994 10995 10997 10998 10999 10999 11000 11000 11001 11001 11001 11002 11003 11003 11004 11004 11004 11004 11004 11004 11004 11004 11005 11004 11004 11004 11003 11003 11003 11003 11003 11003 11002 11002 11001 11000 10999 10999 10999 10999 10999 10999 10999 10999 10998 10998 10998 10997 10997 10996 10996 10995 10995 10994 10993 10992 10991 10991 10990 10990 10990 10989 10989 10988 10988 10988
10961 10964 10966 10969 10971 10972 10974 10976 10978 10979 10980 10980 10981 10983 10984 10984 10983 10986 10988 10990 10992 10994 10996 10997 10997 10997 10997 10998 10998 10999 11000 11001 11001 11002 11002 11002 11003 11002 11002 11002 11002 11002 11002 11002 11002 11001 11001 11001 11001 11001 11000 11000 11000 10999 10999 10998 10998 10998 10997 10997 10997 10998 10998 10998 10998 10997 10997 10997 10996 10996 10996 10996 10995 10994 10993 10992 10992 10992 10991 10991 10991 10990 10990 10990 10990
10954 10957 10959 10963 10965 10966 10969 10971 10973 10974 10975 10977 10979 10980 10980 10979 10980 10982 10985 10987 10989 10991 10993 10993 10994 10994 10994 10994 10995 10996 10997 10998 10998 10999 10999 11000 11000 11000 11000 11000 10999 10999 10999 10999 10999 10999 10999 10998 10998 10998 10998 10998 10998 10997 10997 10997 10996 10996 10996 10996 10996 10996 10996 10997 10997 10996 10996 10996 10996 10996 10996 10996 10996 10995 10995 10994 10993 10993 10993 10992 10992 10992 10991 10991 10991
10950 10952 10955 10957 10959 10960 10963 10967 10969 10970 10971 10974 10976 10976 10977 10978 10978 10979 10982 10984 10987 10988 10990 10990 10989 10989 10989 10990 10992 10993 10994 10995 10995 10996 10996 10997 10997 10998 10998 10998 10998 10997 10997 10996 10996 10996 10996 10996 10995 10995 10995 10995 10995 10995 10995 10995 10994 10994 10994 10994 10994 10994 10995 10995 10995 10995 10995 10995 10996 10996 10996 10996 10996 10996 10996 10995 10995 10994 10994 10994 10994 10993 10993 10993 10992
10947 10949 10951 10953 10954 10955 10957 10961 10964 10966 10968 10970 10972 10973 10974 10976 10977 10978 10980 10981 10983 10985 10986 10986 10984 10984 10984 10985 10988 10990 10991 10992 10993 10993 10993 10994 10994 10995 10996 10996 10996 10995 10995 10995 10995 10994 10994 10993 10993 10993 10993 10993 10993 10994 10994 10993 10993 10993 10993 10992 10992 10993 10994 10994 10994 10994 10994 10994 10995 10995 10996 10996 10996 10996 10996 10995 10995 10995 10995 10994 10994 10994 10994 10994 10993
10942 10944 10944 10946 10948 10948 10951 10955 10958 10961 10963 10966 10967 10969 10970 10972 10974 10976 10977 10978 10978 10981 10982 10981 10979 10980 10982 10982 10984 10986 10988 10989 10989 10990 10990 10991 10991 10992 10992 10993 10993 10993 10992 10992 10992 10991 10991 10990 10990 10990 10990 10991 10991 10992 10992 10991 10991 10990 10991 10991 10990 10992 10993 10993 10992 10992 10992 10993 10993 10994 10994 10995 10995 10995 10995 10995 10995 10995 10995 10994 10994 10994 10993 10993 10993
10935 10936 10936 10938 10940 10942 10944 10948 10952 10955 10958 10961 10963 10964 10965 10966 10969 10971 10973 10975 10976 10977 10979 10978 10977 10978 10980 10980 10980 10983 10985 10985 10986 10986 10986 10987 10988 10988 10988 10988 10988 10989 10989 10989 10989 10988 10988 10988 10988 10988 10988 10989 10989 10990 10989 10989 10988 10988 10988 10988 10988 10991 10993 10992 10990 10990 10991 10991 10992 10992 10992 10993 10993 10993 10993 10994 10994 10994 10995 10994 10994 10994 10993 10993 10993
10927 10929 10930 10931 10934 10937 10939 10941 10945 10949 10952 10954 10956 10958 10959 10960 10962 10964 10967 10971 10972 10972 10974 10976 10976 10976 10977 10976 10975 10978 10981 10982 10982 10982 10982 10983 10984 10984 10984 10984 10984 10985 10986 10986 10986 10986 10986 10986 10986 10987 10987 10988 10988 10988 10987 10986 10985 10985 10986 10985 10986 10989 10991 10990 10988 10989 10990 10990 10990 10990 10990 10991 10991 10991 10992 10992 10992 10993 10993 10993 10994 10993 10993 10993 10992
10919 10922 10923 10925 10927 10930 10932 10934 10937 10941 10944 10946 10950 10952 10953 10954 10956 10958 10961 10963 10964 10965 10968 10972 10974 10975 10976 10975 10973 10973 10975 10977 10978 10979 10979 10979 10980 10980 10980 10980 10980 10981 10982 10982 10983 10983 10983 10983 10984 10984 10985 10985 10985 10985 10985 10984 10983 10983 10984 10984 10985 10988 10989 10987 10986 10987 10988 10987 10987 10987 10988 10988 10989 10989 10989 10990 10990 10991 10991 10991 10992 10992 10992 10992 10991
10910 10913 10915 10917 10919 10921 10924 10926 10928 10931 10935 10938 10942 10945 10947 10948 10950 10952 10954 10956 10957 10959 10962 10966 10969 10971 10972 10972 10970 10969 10970 10971 10973 10975 10975 10976 10976 10976 10976 10976 10977 10977 10978 10978 10979 10979 10979 10980 10980 10981 10981 10981 10981 10981 10982 10982 10981 10981 10982 10983 10985 10986 10987 10986 10985 10985 10985 10985 10985 10985 10985 10985 10986 10986 10986 10987 10988 10988 10988 10988 10989 10989 10989 10990 10989
10900 10903 10906 10908 10910 10913 10915 10917 10919 10922 10925 10929 10933 10936 10939 10941 10943 10945 10947 10949 10950 10953 10955 10958 10961 10963 10963 10962 10963 10964 10964 10965 10967 10969 10970 10971 10972 10972 10972 10972 10973 10973 10974 10974 10975 10975 10975 10976 10977 10978 10978 10978 10978 10978 10979 10979 10979 10979 10980 10981 10982 10983 10984 10984 10984 10984 10983 10982 10982 10982 10982 10983 10983 10983 10983 10984 10984 10985 10984 10985 10985 10986 10986 10986 10986
10889 10892 10895 10898 10901 10903 10905 10907 10910 10913 10916 10920 10924 10927 10930 10933 10935 10937 10939 10941 10943 10945 10947 10949 10952 10953 10954 10954 10955 10957 10958 10960 10961 10963 10964 10966 10967 10968 10968 10969 10969 10969 10969 10970 10970 10971 10971 10972 10973 10973 10974 10974 10975 10975 10976 10976 10977 10977 10977 10978 10978 10979 10979 10980 10981 10981 10980 10979 10979 10979 10979 10980 10980 10980 10980 10980 10981 10981 10981 10982 10982 10983 10983 10983 10982
10877 10881 10884 10887 10890 10893 10895 10898 10901 10904 10908 10911 10915 10918 10921 10924 10927 10929 10931 10932 10934 10937 10939 10941 10943 10945 10946 10947 10948 10950 10952 10954 10955 10956 10958 10959 10961 10962 10963 10964 10965 10965 10965 10965 10966 10966 10967 10968 10968 10969 10970 10970 10971 10972 10973 10974 10975 10975 10975 10975 10975 10975 10975 10976 10977 10977 10976 10975 10975 10976 10976 10978 10978 10977 10977 10977 10978 10978 10978 10979 10980 10980 10979 10979 10979
10866 10869 10872 10876 10880 10883 10886 10889 10893 10896 10900 10903 10906 10909 10911 10915 10918 10920 10922 10924 10926 10929 10931 10933 10935 10937 10938 10940 10941 10942 10944 10947 10949 10950 10951 10953 10954 10955 10957 10959 10960 10960 10961 10960 10960 10961 10962 10963 10963 10964 10965 10966 10967 10967 10968 10970 10971 10971 10972 10972 10972 10972 10972 10972 10973 10973 10972 10972 10972 10972 10973 10974 10975 10974 10974 10974 10974 10975 10975 10976 10976 10976 10976 10976 10976
10855 10858 10861 10865 10870 10873 10876 10879 10883 10887 10890 10893 10896 10899 10902 10905 10908 10911 10913 10915 10917 10920 10923 10925 10927 10928 10930 10932 10934 10935 10937 10939 10941 10943 10944 10946 10947 10949 10950 10952 10953 10954 10955 10955 10955 10955 10957 10958 10958 10959 10960 10961 10962 10963 10964 10965 10966 10967 10968 10968 10968 10969 10969 10969 10969 10969 10969 10969 10969 10969 10969 10971 10971 10971 10971 10971 10971 10972 10973 10972 10972 10972 10972 10972 10972
10844 10848 10851 10855 10860 10863 10866 10868 10873 10877 10880 10882 10885 10889 10892 10895 10899 10902 10904 10906 10908 10910 10913 10915 10918 10920 10922 10924 10925 10927 10929 10931 10933 10935 10937 10939 10941 10942 10943 10945 10946 10947 10948 10949 10949 10949 10950 10952 10953 10953 10954 10955 10956 10957 10958 10959 10960 10962 10963 10964 10964 10964 10965 10965 10965 10965 10965 10966 10966 10965 10966 10967 10967 10967 10967 10967 10967 10968 10969 10969 10968 10969 10969 10969 10968
10833 10837 10841 10844 10848 10852 10855 10857 10861 10865 10868 10871 10874 10877 10881 10885 10888 10892 10894 10896 10898 10899 10902 10905 10907 10910 10913 10915 10917 10918 10921 10922 10924 10926 10929 10931 10933 10935 10936 10938 10939 10940 10941 10942 10943 10944 10944 10945 10946 10947 10949 10949 10950 10951 10952 10953 10955 10956 10957 10958 10959 10960 10960 10960 10960 10960 10961 10961 10961 10961 10961 10962 10963 10963 10963 10963 10963 10964 10965 10965 10965 10965 10966 10966 10964
10823 10827 10830 10833 10837 10841 10844 10846 10849 10852 10856 10859 10863 10866 10869 10873 10877 10881 10884 10886 10888 10890 10892 10895 10898 10900 10903 10906 10907 10909 10912 10914 10915 10917 10919 10922 10924 10927 10928 10930 10931 10933 10934 10935 10936 10937 10938 10938 10939 10941 10942 10943 10944 10945 10946 10947 10948 10950 10951 10952 10954 10954 10955 10955 10956 10956 10956 10957 10956 10956 10957 10958 10958 10959 10959 10959 10959 10960 10960 10961 10961 10961 10962 10962 10961
10812 10816 10819 10822 10825 10828 10831 10834 10836 10839 10843 10846 10850 10854 10858 10862 10866 10870 10873 10876 10878 10880 10882 10885 10888 10890 10892 10894 10897 10899 10901 10905 10907 10908 10910 10912 10914 10916 10919 10921 10922 10924 10927 10928 10929 10930 10931 10932 10932 10934 10935 10937 10939 10940 10940 10941 10942 10943 10945 10946 10947 10949 10950 10950 10951 10951 10951 10952 10951 10952 10953 10954 10954 10955 10955 10955 10955 10956 10956 10956 10956 10957 10957 10958 10957
10800 10804 10807 10810 10813 10815 10818 10820 10822 10826 10831 10835 10838 10842 10846 10850 10854 10858 10862 10865 10867 10868 10870 10873 10877 10879 10880 10883 10886 10889 10891 10894 10897 10899 10900 10901 10903 10906 10908 10911 10914 10916 10918 10920 10922 10923 10924 10925 10926 10927 10928 10930 10932 10933 10934 10935 10936 10937 10938 10940 10941 10942 10944 10945 10945 10946 10946 10946 10946 10947 10947 10948 10949 10950 10951 10951 10951 10951 10951 10952 10952 10952 10952 10952 10952
10786 10790 10794 10797 10799 10802 10804 10806 10809 10813 10819 10823 10827 10830 10834 10838 10843 10846 10849 10851 10854 10856 10858 10860 10864 10868 10870 10872 10875 10879 10882 10884 10886 10889 10890 10890 10892 10894 10897 10901 10904 10906 10908 10911 10913 10914 10915 10917 10918 10919 10921 10922 10924 10925 10927 10928 10930 10931 10932 10933 10934 10935 10937 10938 10939 10940 10940 10940 10940 10941 10941 10942 10943 10944 10945 10945 10945 10945 10946 10946 10946 10946 10947 10947 10947
10773 10776 10780 10783 10786 10788 10791 10793 10796 10801 10806 10811 10815 10818 10822 10826 10830 10833 10835 10837 10840 10843 10846 10849 10852 10856 10859 10861 10864 10867 10871 10873 10875 10877 10879 10880 10881 10883 10886 10889 10893 10896 10899 10900 10902 10904 10905 10907 10909 10911 10912 10914 10916 10917 10919 10920 10922 10923 10924 10926 10926 10927 10929 10931 10932 10933 10934 10934 10934 10934 10935 10936 10937 10938 10938 10939 10940 10940 10940 10940 10941 10941 10942 10942 10942
10759 10762 10765 10768 10771 10774 10777 10780 10783 10788 10793 10798 10802 10806 10809 10812 10816 10819 10821 10823 10826 10829 10834 10838 10841 10843 10847 10850 10852 10854 10857 10861 10864 10866 10867 10868 10870 10872 10874 10878 10882 10885 10888 10890 10891 10893 10894 10896 10898 10901 10903 10905 10906 10908 10910 10911 10913 10915 10916 10917 10918 10919 10921 10922 10924 10925 10927 10927 10927 10928 10928 10929 10930 10931 10932 10933 10934 10934 10934 10934 10935 10936 10937 10937 10937
10745 10748 10751 10754 10757 10761 10764 10767 10770 10774 10779 10784 10788 10791 10794 10797 10801 10804 10808 10811 10813 10816 10820 10824 10828 10831 10834 10837 10839 10841 10843 10847 10851 10854 10855 10856 10858 10860 10862 10866 10870 10873 10876 10878 10880 10882 10883 10885 10887 10890 10893 10895 10897 10898 10900 10901 10903 10905 10907 10908 10910 10911 10912 10914 10915 10917 10919 10919 10920 10921 10921 10922 10923 10924 10925 10926 10927 10927 10928 10928 10929 10930 10931 10931 10931
10730 10733 10737 10741 10744 10747 10750 10753 10756 10760 10764 10769 10773 10777 10780 10783 10786 10790 10793 10797 10800 10802 10805 10809 10813 10817 10821 10825 10827 10829 10831 10833 10836 10840 10843 10844 10846 10848 10850 10854 10857 10860 10863 10866 10868 10870 10872 10874 10877 10879 10882 10884 10887 10889 10890 10891 10893 10895 10897 10899 10901 10902 10903 10905 10906 10908 10910 10911 10912 10913 10914 10915 10915 10917 10918 10919 10919 10920 10921 10922 10922 10923 10924 10925 10926
10714 10718 10722 10727 10730 10733 10736 10739 10743 10746 10749 10753 10757 10761 10764 10768 10772 10775 10779 10782 10785 10788 10790 10794 10798 10803 10807 10811 10814 10816 10818 10820 10823 10826 10829 10831 10833 10835 10838 10841 10844 10847 10850 10852 10855 10858 10861 10863 10866 10868 10870 10872 10875 10877 10880 10881 10882 10884 10886 10888 10890 10892 10893 10895 10897 10899 10900 10902 10903 10904 10905 10906 10907 10909 10910 10911 10911 10912 10914 10914 10915 10915 10916 10918 10919
10698 10702 10706 10711 10715 10719 10722 10725 10729 10732 10735 10738 10741 10744 10748 10752 10757 10761 10764 10767 10769 10771 10774 10778 10783 10788 10792 10796 10800 10802 10804 10806 10809 10812 10815 10817 10819 10821 10824 10827 10830 10833 10835 10838 10842 10846 10849 10851 10853 10856 10858 10860 10862 10865 10867 10870 10871 10873 10875 10877 10879 10881 10883 10885 10887 10889 10891 10892 10893 10895 10896 10897 10898 10900 10901 10902 10903 10904 10905 10905 10906 10907 10908 10910 10911
10682 10686 10690 10694 10699 10703 10707 10710 10714 10717 10720 10722 10725 10728 10733 10737 10741 10745 10748 10750 10753 10755 10759 10763 10767 10772 10776 10780 10784 10787 10790 10792 10794 10797 10800 10802 10805 10807 10810 10812 10815 10817 10821 10824 10828 10832 10835 10838 10841 10843 10845 10847 10849 10852 10854 10857 10859 10861 10863 10866 10868 10869 10872 10874 10876 10878 10880 10882 10883 10884 10886 10887 10889 10890 10891 10892 10894 10896 10896 10896 10897 10899 10900 10901 10901
10666 10671 10674 10678 10682 10686 10690 10694 10698 10702 10705 10707 10710 10713 10717 10721 10725 10728 10731 10734 10736 10739 10742 10746 10750 10754 10758 10763 10767 10771 10774 10777 10779 10782 10785 10788 10790 10793 10795 10797 10799 10802 10805 10809 10813 10817 10821 10824 10827 10829 10832 10834 10836 10838 10841 10843 10846 10848 10851 10853 10856 10858 10860 10862 10865 10867 10869 10871 10872 10873 10875 10877 10879 10880 10881 10882 10884 10886 10887 10887 10888 10889 10891 10892 10891
10650 10655 10658 10661 10665 10669 10674 10677 10681 10685 10688 10691 10694 10697 10701 10705 10708 10711 10714 10716 10719 10722 10725 10729 10733 10737 10741 10745 10749 10753 10757 10761 10764 10767 10770 10772 10775 10777 10780 10782 10784 10787 10789 10793 10798 10803 10806 10809 10812 10815 10817 10820 10822 10825 10827 10829 10832 10834 10837 10840 10843 10846 10848 10850 10853 10856 10858 10860 10861 10862 10864 10866 10868 10870 10870 10871 10873 10875 10877 10877 10878 10880 10882 10882 10881
10634 10638 10642 10646 10649 10653 10657 10661 10664 10667 10671 10674 10677 10681 10684 10688 10691 10694 10696 10699 10702 10705 10708 10711 10715 10719 10723 10727 10731 10735 10739 10743 10747 10750 10753 10756 10759 10762 10764 10766 10768 10771 10774 10778 10783 10788 10791 10793 10796 10799 10801 10804 10807 10810 10813 10815 10817 10820 10823 10826 10829 10832 10834 10837 10840 10843 10846 10848 10849 10851 10853 10855 10856 10857 10859 10860 10861 10864 10865 10866 10867 10869 10870 10871 10871
10618 10621 10625 10629 10633 10636 10640 10644 10647 10651 10654 10657 10660 10663 10666 10669 10672 10676 10679 10682 10685 10688 10690 10692 10695 10699 10703 10708 10712 10716 10720 10725 10728 10732 10734 10737 10741 10745 10747 10750 10752 10755 10757 10761 10766 10771 10775 10778 10780 10783 10786 10788 10791 10794 10797 10800 10802 10805 10809 10812 10815 10817 10820 10823 10826 10828 10831 10834 10836 10838 10841 10842 10843 10845 10846 10848 10850 10852 10853 10854 10854 10856 10858 10860 10861
10600 10604 10608 10611 10615 10619 10622 10626 10630 10633 10636 10639 10642 10644 10647 10650 10653 10657 10660 10663 10667 10670 10672 10674 10677 10679 10683 10687 10691 10695 10700 10704 10709 10713 10716 10719 10722 10726 10729 10732 10735 10738 10740 10743 10748 10753 10758 10762 10765 10768 10770 10772 10775 10777 10780 10783 10787 10790 10794 10797 10800 10803 10805 10808 10811 10813 10816 10819 10822 10824 10826 10828 10830 10832 10833 10834 10837 10839 10841 10841 10842 10843 10845 10847 10848
10583 10587 10591 10594 10598 10601 10604 10608 10611 10615 10618 10621 10624 10626 10629 10632 10635 10637 10640 10644 10647 10650 10653 10656 10658 10660 10662 10665 10669 10674 10678 10683 10688 10693 10696 10700 10703 10706 10710 10714 10717 10720 10723 10726 10729 10734 10739 10744 10748 10752 10754 10756 10759 10761 10764 10767 10770 10774 10777 10781 10785 10787 10790 10793 10796 10798 10801 10804 10807 10809 10811 10813 10815 10817 10819 10821 10823 10826 10827 10828 10829 10831 10833 10833 10835
10565 10569 10572 10576 10580 10583 10586 10590 10593 10596 10599 10602 10605 10608 10611 10613 10615 10618 10621 10624 10627 10630 10633 10636 10638 10640 10642 10645 10648 10652 10656 10661 10667 10671 10675 10679 10683 10687 10691 10695 10697 10700 10703 10707 10711 10715 10720 10725 10729 10734 10737 10740 10742 10745 10748 10751 10754 10756 10760 10763 10767 10771 10773 10776 10779 10782 10785 10788 10791 10794 10795 10797 10799 10801 10804 10806 10809 10812 10814 10815 10816 10818 10820 10821 10821
10549 10552 10555 10559 10561 10565 10568 10571 10574 10577 10580 10583 10586 10588 10591 10593 10596 10598 10601 10604 10606 10609 10612 10615 10617 10619 10622 10625 10628 10631 10635 10639 10644 10649 10653 10658 10662 10667 10671 10675 10677 10680 10684 10687 10692 10696 10701 10705 10710 10715 10719 10722 10725 10728 10731 10734 10737 10739 10742 10745 10748 10752 10755 10758 10762 10765 10768 10771 10775 10777 10779 10781 10783 10785 10787 10790 10793 10797 10799 10801 10802 10804 10806 10807 10808
10534 10537 10539 10542 10544 10547 10549 10552 10555 10558 10561 10564 10567 10569 10572 10574 10577 10579 10581 10583 10586 10589 10592 10595 10597 10599 10602 10604 10607 10610 10614 10618 10622 10627 10631 10635 10640 10645 10650 10654 10657 10661 10664 10668 10672 10676 10680 10685 10690 10695 10698 10703 10707 10710 10713 10715 10718 10721 10724 10727 10730 10734 10737 10740 10743 10746 10750 10754 10758 10760 10763 10765 10767 10769 10770 10773 10776 10780 10783 10785 10787 10788 10790 10793 10795
10518 10521 10523 10526 10528 10530 10532 10534 10537 10540 10542 10545 10548 10550 10553 10555 10558 10559 10561 10563 10565 10568 10571 10574 10577 10579 10582 10584 10587 10590 10593 10597 10601 10605 10609 10613 10618 10623 10628 10633 10637 10640 10644 10647 10651 10654 10659 10664 10669 10674 10677 10681 10685 10689 10693 10696 10699 10703 10706 10709 10712 10715 10718 10721 10725 10727 10731 10735 10739 10742 10745 10748 10751 10753 10755 10756 10759 10762 10765 10768 10770 10771 10774 10777 10780
10504 10506 10508 10510 10512 10514 10516 10518 10520 10522 10525 10527 10530 10532 10534 10536 10538 10540 10542 10543 10545 10547 10549 10552 10556 10559 10561 10564 10567 10570 10573 10577 10580 10584 10588 10593 10598 10603 10608 10612 10615 10619 10622 10626 10629 10633 10637 10642 10647 10652 10656 10660 10663 10667 10670 10674 10678 10682 10686 10689 10693 10696 10699 10702 10705 10708 10712 10717 10721 10723 10727 10730 10734 10736 10738 10740 10742 10744 10747 10749 10752 10754 10756 10760 10763
10490 10491 10493 10495 10496 10498 10500 10502 10504 10506 10508 10510 10512 10514 10516 10517 10519 10520 10521 10523 10525 10527 10529 10532 10535 10538 10541 10544 10547 10551 10554 10558 10561 10564 10569 10574 10579 10583 10587 10590 10593 10596 10600 10605 10609 10612 10615 10619 10624 10628 10632 10637 10641 10644 10648 10652 10656 10660 10664 10668 10672 10676 10679 10682 10686 10689 10692 10697 10701 10704 10708 10711 10715 10718 10721 10723 10725 10727 10730 10731 10734 10736 10739 10742 10745